{"data":{"norad_id":53575,"epoch":"2026-09-20T13:17:11.046912Z","epoch_age_seconds":73602,"freshness":"FRESH","line1":"1 53575U 22101BA  26263.55360008  .00000503  00000+0  26034-4 0  9993","line2":"2 53575  53.1579 243.2037 0001235  85.4539 274.6605 15.34389264226772","mean_motion":15.34389264,"eccentricity":0.0001235,"inclination_deg":53.1579,"raan_deg":243.2037,"arg_perigee_deg":85.4539,"mean_anomaly_deg":274.6605,"bstar":2.6034e-5,"rev_number":22677,"period_min":93.848414726656,"perigee_km":461.89030233714,"apogee_km":463.5799977582,"semimajor_km":6840.8721500477,"source":"CELESTRAK","updated_at":"2026-09-21T09:00:32.932369Z"}}